Regional Weather Roundup
Issued by NWS State College, PA

Home | Current Version | Previous Version | Text Only | Print | Product List | Glossary Off
Versions: 1 2 3 4 5 6 7 8 9 10 11 12 13 14 15 16 17 18 19 20 21 22 23 24 25 26 27 28 29 30 31 32 33 34 35 36 37 38 39 40 41 42 43 44 45 46 47 48 49 50

000
ASUS41 KCTP 211510
RWRCTP
REGIONAL WEATHER ROUNDUP
NATIONAL WEATHER SERVICE STATE COLLEGE PA
1100 AM EDT THU SEP 21 2017

Note: "fair" indicates few or no clouds below 12,000 feet with no
significant weather and/or obstructions to visibility.

* = STATION THAT DOES NOT REPORT PRECIPITATION /E.G. RAIN...SNOW...ETC/
    THUNDER OR FOG.

PAZ002>004-007>009-013>016-020>023-029>032-211600-
WESTERN PENNSYLVANIA

CITY           SKY/WX    TMP DP  RH WIND       PRES   REMARKS
ERIE           SUNNY     78  63  59 CALM      30.12S
MEADVILLE      SUNNY     77  63  61 CALM      30.15S
FRANKLIN*      SUNNY     73  63  70 CALM      30.17R
NEW CASTLE     FAIR      74  65  73 CALM      30.14S
BEAVER COUNTY  SUNNY     77  66  69 CALM      30.15R
BUTLER*        SUNNY     74  64  71 CALM      30.15R
PITTSBURGH INT SUNNY     77  66  68 CALM      30.13F
PITTSBURGH     SUNNY     74  65  73 CALM      30.14R HAZE
INDIANA*       SUNNY     73  64  73 CALM      30.17S
LATROBE        SUNNY     73  68  83 CALM      30.15R
WASHINGTON CO* SUNNY     75  66  73 CALM      30.15S
$$

PAZ004>006-010>012-017>019-024>028-033>037-041-042-045-046-049>053-211600-
CENTRAL PENNSYLVANIA

CITY           SKY/WX    TMP DP  RH WIND       PRES   REMARKS
BRADFORD       SUNNY     72  59  63 CALM      30.17S
DUBOIS         SUNNY     74  61  63 CALM      30.16R
CLEARFIELD     SUNNY     70  62  76 SW3       30.15S
JOHNSTOWN      SUNNY     73  60  63 N3        30.17S
ALTOONA        SUNNY     72  62  71 CALM      30.15R
STATE COLLEGE  SUNNY     72  63  73 CALM      30.13S
WILLIAMSPORT   MOSUNNY   73  64  73 SW5       30.09F
SELINSGROVE    SUNNY     75  65  70 CALM      30.10S
FT INDIANTOWN  PTSUNNY   79  65  63 NW3       30.08R
CAPITAL CITY   MOSUNNY   79  61  53 N7        30.08R
HARRISBURG     MOSUNNY   77  65  66 W6        30.07S
YORK           SUNNY     77  66  68 CALM      30.08S
$$

PAZ038>040-043-044-047-048-054-055-060>062-067>071-211600-
EASTERN PENNSYLVANIA

CITY           SKY/WX    TMP DP  RH WIND       PRES   REMARKS
SCRANTON       PTSUNNY   71  63  75 CALM      30.11S
MOUNT POCONO   SUNNY     74  59  59 N10       30.12S
ALLENTOWN      SUNNY     79  65  62 CALM      30.06S
QUAKERTOWN*    SUNNY     77  66  69 N6        30.07S
READING        MOSUNNY   78  67  68 NE5       30.05F
LANCASTER      MOSUNNY   79  66  64 CALM      30.07S
COATESVILLE    SUNNY     77  66  69 N7        30.08S
POTTSTOWN      MOSUNNY   79  66  64 CALM      30.07S
BLUE BELL      SUNNY     79  64  61 N5        30.06S
DOYLESTOWN     SUNNY     80  65  59 N8        30.05S
WILLOW GROVE   NOT AVBL
NORTH PHILA    SUNNY     82  64  54 NE13      30.05S
PHILADELPHIA   MOSUNNY   82  64  54 N13       30.03F
$$




USA.gov is the U.S. government's official web portal to all federal, state and local government web resources and services.